User: anonymous   Login
Location: Saint-Usage
(47.1052°N, 5.2587°E)
Time: 05:29:24
(UTC+01:00)
Language:

FALCONSAT 3 - Orbit

View from above orbital plane
View from above orbital plane
View from above satellite
View from above satellite

Ground track
Ground track

The orbit data is extracted from the following two-line orbital elements,

1 30776U 07006E   21338.59619621  .00012015  00000-0  26305-3 0  9990
2 30776  35.4343  85.0186 0002179  24.1150 335.9680 15.43323374819385
Epoch (UTC): 04 December 2021 14:18:31
Eccentricity: 0.0002179
inclination: 35.4343°
perigee height: 435 km
apogee height: 438 km
right ascension of ascending node: 85.0186°
argument of perigee: 24.1150°
revolutions per day: 15.43323374
mean anomaly at epoch: 335.9680°
orbit number at epoch: 81938

The dashed part of the orbit path shows where the satellite is in the earth's shadow,  

DLR